Year,Month,Day,Hour,Minute,Value (Times are PST for temperature in C)
2006,04,24,00,00,9.10
2006,04,24,00,01,9.10
2006,04,24,00,02,9.10
2006,04,24,00,03,9.00
2006,04,24,00,04,9.00
2006,04,24,00,05,8.90
2006,04,24,00,06,8.90
2006,04,24,00,07,8.90
2006,04,24,00,08,8.80
2006,04,24,00,09,8.80
2006,04,24,00,10,8.70
2006,04,24,00,11,8.70
2006,04,24,00,12,8.60
2006,04,24,00,13,8.60
2006,04,24,00,14,8.50
2006,04,24,00,15,8.50
2006,04,24,00,16,8.40
2006,04,24,00,17,8.40
2006,04,24,00,18,8.30
2006,04,24,00,19,8.30
2006,04,24,00,20,8.20
2006,04,24,00,21,8.20
2006,04,24,00,22,8.20
2006,04,24,00,23,8.20
2006,04,24,00,24,8.10
2006,04,24,00,25,8.10
2006,04,24,00,26,8.00
2006,04,24,00,27,8.00
2006,04,24,00,28,8.00
2006,04,24,00,29,7.90
2006,04,24,00,30,7.90
2006,04,24,00,31,7.80
2006,04,24,00,32,7.80
2006,04,24,00,33,7.80
2006,04,24,00,34,7.80
2006,04,24,00,35,7.70
2006,04,24,00,36,7.70
2006,04,24,00,37,7.70
2006,04,24,00,38,7.60
2006,04,24,00,39,7.60
2006,04,24,00,40,7.60
2006,04,24,00,41,7.50
2006,04,24,00,42,7.50
2006,04,24,00,43,7.50
2006,04,24,00,44,7.40
2006,04,24,00,45,7.40
2006,04,24,00,46,7.30
2006,04,24,00,47,7.30
2006,04,24,00,48,7.30
2006,04,24,00,49,7.30
2006,04,24,00,50,7.20
2006,04,24,00,51,7.20
2006,04,24,00,52,7.20
2006,04,24,00,53,7.10
2006,04,24,00,54,7.10
2006,04,24,00,55,7.00
2006,04,24,00,56,7.00
2006,04,24,00,57,7.00
2006,04,24,00,58,7.00
2006,04,24,00,59,6.90
2006,04,24,01,00,6.90
2006,04,24,01,01,6.90
2006,04,24,01,02,6.80
2006,04,24,01,03,6.80
2006,04,24,01,04,6.80
2006,04,24,01,05,6.80
2006,04,24,01,06,6.80
2006,04,24,01,07,6.80
2006,04,24,01,08,6.80
2006,04,24,01,09,6.70
2006,04,24,01,10,6.70
2006,04,24,01,11,6.60
2006,04,24,01,12,6.50
2006,04,24,01,13,6.40
2006,04,24,01,14,6.40
2006,04,24,01,15,6.40
2006,04,24,01,16,6.30
2006,04,24,01,17,6.30
2006,04,24,01,18,6.30
2006,04,24,01,19,6.30
2006,04,24,01,20,6.30
2006,04,24,01,21,6.20
2006,04,24,01,22,6.20
2006,04,24,01,23,6.20
2006,04,24,01,24,6.20
2006,04,24,01,25,6.20
2006,04,24,01,26,6.20
2006,04,24,01,27,6.30
2006,04,24,01,28,6.30
2006,04,24,01,29,6.20
2006,04,24,01,30,6.20
2006,04,24,01,31,6.20
2006,04,24,01,32,6.20
2006,04,24,01,33,6.20
2006,04,24,01,34,6.20
2006,04,24,01,35,6.20
2006,04,24,01,36,6.20
2006,04,24,01,37,6.20
2006,04,24,01,38,6.10
2006,04,24,01,39,6.00
2006,04,24,01,40,6.00
2006,04,24,01,41,6.00
2006,04,24,01,42,5.90
2006,04,24,01,43,5.90
2006,04,24,01,44,5.90
2006,04,24,01,45,5.80
2006,04,24,01,46,5.80
2006,04,24,01,47,5.80
2006,04,24,01,48,5.80
2006,04,24,01,49,5.80
2006,04,24,01,50,5.80
2006,04,24,01,51,5.80
2006,04,24,01,52,5.70
2006,04,24,01,53,5.80
2006,04,24,01,54,5.70
2006,04,24,01,55,5.70
2006,04,24,01,56,5.70
2006,04,24,01,57,5.70
2006,04,24,01,58,5.70
2006,04,24,01,59,5.70
2006,04,24,02,00,5.70
2006,04,24,02,01,5.70
2006,04,24,02,02,5.70
2006,04,24,02,03,5.70
2006,04,24,02,04,5.70
2006,04,24,02,05,5.70
2006,04,24,02,06,5.70
2006,04,24,02,07,5.70
2006,04,24,02,08,5.70
2006,04,24,02,09,5.70
2006,04,24,02,10,5.70
2006,04,24,02,11,5.70
2006,04,24,02,12,5.70
2006,04,24,02,13,5.70
2006,04,24,02,14,5.70
2006,04,24,02,15,5.70
2006,04,24,02,16,5.70
2006,04,24,02,17,5.70
2006,04,24,02,18,5.70
2006,04,24,02,19,5.70
2006,04,24,02,20,5.70
2006,04,24,02,21,5.70
2006,04,24,02,22,5.70
2006,04,24,02,23,5.70
2006,04,24,02,24,5.70
2006,04,24,02,25,5.70
2006,04,24,02,26,5.70
2006,04,24,02,27,5.80
2006,04,24,02,28,5.80
2006,04,24,02,29,5.90
2006,04,24,02,30,6.00
2006,04,24,02,31,6.00
2006,04,24,02,32,6.10
2006,04,24,02,33,6.10
2006,04,24,02,34,6.20
2006,04,24,02,35,6.20
2006,04,24,02,36,6.20
2006,04,24,02,37,6.20
2006,04,24,02,38,6.20
2006,04,24,02,39,6.20
2006,04,24,02,40,6.20
2006,04,24,02,41,6.20
2006,04,24,02,42,6.20
2006,04,24,02,43,6.20
2006,04,24,02,44,6.20
2006,04,24,02,45,6.20
2006,04,24,02,46,6.20
2006,04,24,02,47,6.20
2006,04,24,02,48,6.20
2006,04,24,02,49,6.20
2006,04,24,02,50,6.20
2006,04,24,02,51,6.20
2006,04,24,02,52,6.20
2006,04,24,02,53,6.20
2006,04,24,02,54,6.10
2006,04,24,02,55,6.10
2006,04,24,02,56,6.10
2006,04,24,02,57,6.10
2006,04,24,02,58,6.10
2006,04,24,02,59,6.10
2006,04,24,03,00,6.10
2006,04,24,03,01,6.00
2006,04,24,03,02,6.00
2006,04,24,03,03,5.90
2006,04,24,03,04,5.90
2006,04,24,03,05,5.90
2006,04,24,03,06,5.80
2006,04,24,03,07,5.80
2006,04,24,03,08,5.80
2006,04,24,03,09,5.80
2006,04,24,03,10,5.80
2006,04,24,03,11,5.80
2006,04,24,03,12,5.80
2006,04,24,03,13,5.80
2006,04,24,03,14,5.80
2006,04,24,03,15,5.90
2006,04,24,03,16,6.00
2006,04,24,03,17,6.20
2006,04,24,03,18,6.20
2006,04,24,03,19,6.30
2006,04,24,03,20,6.30
2006,04,24,03,21,6.40
2006,04,24,03,22,6.40
2006,04,24,03,23,6.40
2006,04,24,03,24,6.40
2006,04,24,03,25,6.50
2006,04,24,03,26,6.60
2006,04,24,03,27,6.70
2006,04,24,03,28,6.80
2006,04,24,03,29,6.80
2006,04,24,03,30,6.90
2006,04,24,03,31,7.00
2006,04,24,03,32,7.00
2006,04,24,03,33,7.00
2006,04,24,03,34,7.00
2006,04,24,03,35,7.00
2006,04,24,03,36,7.00
2006,04,24,03,37,7.10
2006,04,24,03,38,7.10
2006,04,24,03,39,7.10
2006,04,24,03,40,7.10
2006,04,24,03,41,7.20
2006,04,24,03,42,7.30
2006,04,24,03,43,7.30
2006,04,24,03,44,7.30
2006,04,24,03,45,7.30
2006,04,24,03,46,7.30
2006,04,24,03,47,7.30
2006,04,24,03,48,7.40
2006,04,24,03,49,7.40
2006,04,24,03,50,7.30
2006,04,24,03,51,7.30
2006,04,24,03,52,7.30
2006,04,24,03,53,7.30
2006,04,24,03,54,7.30
2006,04,24,03,55,7.30
2006,04,24,03,56,7.30
2006,04,24,03,57,7.30
2006,04,24,03,58,7.30
2006,04,24,03,59,7.30
2006,04,24,04,00,7.30
2006,04,24,04,01,7.30
2006,04,24,04,02,7.30
2006,04,24,04,03,7.30
2006,04,24,04,04,7.30
2006,04,24,04,05,7.30
2006,04,24,04,06,7.30
2006,04,24,04,07,7.30
2006,04,24,04,08,7.30
2006,04,24,04,09,7.30
2006,04,24,04,10,7.30
2006,04,24,04,11,7.30
2006,04,24,04,12,7.30
2006,04,24,04,13,7.30
2006,04,24,04,14,7.20
2006,04,24,04,15,7.20
2006,04,24,04,16,7.10
2006,04,24,04,17,7.10
2006,04,24,04,18,7.10
2006,04,24,04,19,7.00
2006,04,24,04,20,7.00
2006,04,24,04,21,7.00
2006,04,24,04,22,7.00
2006,04,24,04,23,7.00
2006,04,24,04,24,7.00
2006,04,24,04,25,6.90
2006,04,24,04,26,6.90
2006,04,24,04,27,6.80
2006,04,24,04,28,6.80
2006,04,24,04,29,6.90
2006,04,24,04,30,6.90
2006,04,24,04,31,6.90
2006,04,24,04,32,6.80
2006,04,24,04,33,6.90
2006,04,24,04,34,6.90
2006,04,24,04,35,6.90
2006,04,24,04,36,7.00
2006,04,24,04,37,7.00
2006,04,24,04,38,7.10
2006,04,24,04,39,7.10
2006,04,24,04,40,7.10
2006,04,24,04,41,7.10
2006,04,24,04,42,7.10
2006,04,24,04,43,7.10
2006,04,24,04,44,7.00
2006,04,24,04,45,7.00
2006,04,24,04,46,6.90
2006,04,24,04,47,6.90
2006,04,24,04,48,6.90
2006,04,24,04,49,6.80
2006,04,24,04,50,6.80
2006,04,24,04,51,6.80
2006,04,24,04,52,6.80
2006,04,24,04,53,6.80
2006,04,24,04,54,6.80
2006,04,24,04,55,6.80
2006,04,24,04,56,6.90
2006,04,24,04,57,6.90
2006,04,24,04,58,7.00
2006,04,24,04,59,7.00
2006,04,24,05,00,7.10
2006,04,24,05,01,7.10
2006,04,24,05,02,7.20
2006,04,24,05,03,7.20
2006,04,24,05,04,7.30
2006,04,24,05,05,7.30
2006,04,24,05,06,7.40
2006,04,24,05,07,7.40
2006,04,24,05,08,7.40
2006,04,24,05,09,7.40
2006,04,24,05,10,7.40
2006,04,24,05,11,7.40
2006,04,24,05,12,7.40
2006,04,24,05,13,7.40
2006,04,24,05,14,7.40
2006,04,24,05,15,7.40
2006,04,24,05,16,7.50
2006,04,24,05,17,7.50
2006,04,24,05,18,7.50
2006,04,24,05,19,7.50
2006,04,24,05,20,7.60
2006,04,24,05,21,7.60
2006,04,24,05,22,7.60
2006,04,24,05,23,7.70
2006,04,24,05,24,7.70
2006,04,24,05,25,7.70
2006,04,24,05,26,7.70
2006,04,24,05,27,7.70
2006,04,24,05,28,7.80
2006,04,24,05,29,7.80
2006,04,24,05,30,7.80
2006,04,24,05,31,7.80
2006,04,24,05,32,7.70
2006,04,24,05,33,7.60
2006,04,24,05,34,7.60
2006,04,24,05,35,7.60
2006,04,24,05,36,7.60
2006,04,24,05,37,7.60
2006,04,24,05,38,7.60
2006,04,24,05,39,7.60
2006,04,24,05,40,7.60
2006,04,24,05,41,7.50
2006,04,24,05,42,7.50
2006,04,24,05,43,7.40
2006,04,24,05,44,7.40
2006,04,24,05,45,7.30
2006,04,24,05,46,7.30
2006,04,24,05,47,7.30
2006,04,24,05,48,7.30
2006,04,24,05,49,7.30
2006,04,24,05,50,7.30
2006,04,24,05,51,7.30
2006,04,24,05,52,7.30
2006,04,24,05,53,7.30
2006,04,24,05,54,7.30
2006,04,24,05,55,7.30
2006,04,24,05,56,7.30
2006,04,24,05,57,7.20
2006,04,24,05,58,7.20
2006,04,24,05,59,7.10
2006,04,24,06,00,7.10
2006,04,24,06,01,7.00
2006,04,24,06,02,7.00
2006,04,24,06,03,6.90
2006,04,24,06,04,6.80
2006,04,24,06,05,6.80
2006,04,24,06,06,6.80
2006,04,24,06,07,6.80
2006,04,24,06,08,6.80
2006,04,24,06,09,6.70
2006,04,24,06,10,6.70
2006,04,24,06,11,6.60
2006,04,24,06,12,6.60
2006,04,24,06,13,6.60
2006,04,24,06,14,6.60
2006,04,24,06,15,6.60
2006,04,24,06,16,6.60
2006,04,24,06,17,6.60
2006,04,24,06,18,6.60
2006,04,24,06,19,6.60
2006,04,24,06,20,6.60
2006,04,24,06,21,6.60
2006,04,24,06,22,6.60
2006,04,24,06,23,6.60
2006,04,24,06,24,6.60
2006,04,24,06,25,6.60
2006,04,24,06,26,6.60
2006,04,24,06,27,6.60
2006,04,24,06,28,6.60
2006,04,24,06,29,6.60
2006,04,24,06,30,6.60
2006,04,24,06,31,6.50
2006,04,24,06,32,6.40
2006,04,24,06,33,6.40
2006,04,24,06,34,6.40
2006,04,24,06,35,6.40
2006,04,24,06,36,6.40
2006,04,24,06,37,6.30
2006,04,24,06,38,6.30
2006,04,24,06,39,6.30
2006,04,24,06,40,6.30
2006,04,24,06,41,6.30
2006,04,24,06,42,6.30
2006,04,24,06,43,6.40
2006,04,24,06,44,6.40
2006,04,24,06,45,6.40
2006,04,24,06,46,6.40
2006,04,24,06,47,6.40
2006,04,24,06,48,6.40
2006,04,24,06,49,6.50
2006,04,24,06,50,6.60
2006,04,24,06,51,6.60
2006,04,24,06,52,6.60
2006,04,24,06,53,6.70
2006,04,24,06,54,6.70
2006,04,24,06,55,6.80
2006,04,24,06,56,6.80
2006,04,24,06,57,6.90
2006,04,24,06,58,7.00
2006,04,24,06,59,7.10
2006,04,24,07,00,7.20
2006,04,24,07,01,7.30
2006,04,24,07,02,7.40
2006,04,24,07,03,7.60
2006,04,24,07,04,7.70
2006,04,24,07,05,7.80
2006,04,24,07,06,7.80
2006,04,24,07,07,7.80
2006,04,24,07,08,7.90
2006,04,24,07,09,8.00
2006,04,24,07,10,8.10
2006,04,24,07,11,8.20
2006,04,24,07,12,8.20
2006,04,24,07,13,8.20
2006,04,24,07,14,8.30
2006,04,24,07,15,8.50
2006,04,24,07,16,8.50
2006,04,24,07,17,8.70
2006,04,24,07,18,8.80
2006,04,24,07,19,8.90
2006,04,24,07,20,8.90
2006,04,24,07,21,9.00
2006,04,24,07,22,9.20
2006,04,24,07,23,9.30
2006,04,24,07,24,9.40
2006,04,24,07,25,9.50
2006,04,24,07,26,9.70
2006,04,24,07,27,9.80
2006,04,24,07,28,9.90
2006,04,24,07,29,10.00
2006,04,24,07,30,10.10
2006,04,24,07,31,10.20
2006,04,24,07,32,10.40
2006,04,24,07,33,10.50
2006,04,24,07,34,10.70
2006,04,24,07,35,10.80
2006,04,24,07,36,10.90
2006,04,24,07,37,11.00
2006,04,24,07,38,11.10
2006,04,24,07,39,11.10
2006,04,24,07,40,11.20
2006,04,24,07,41,11.30
2006,04,24,07,42,11.40
2006,04,24,07,43,11.40
2006,04,24,07,44,11.40
2006,04,24,07,45,11.50
2006,04,24,07,46,11.60
2006,04,24,07,47,11.60
2006,04,24,07,48,11.70
2006,04,24,07,49,11.80
2006,04,24,07,50,11.90
2006,04,24,07,51,12.00
2006,04,24,07,52,12.10
2006,04,24,07,53,12.10
2006,04,24,07,54,12.20
2006,04,24,07,55,12.20
2006,04,24,07,56,12.30
2006,04,24,07,57,12.30
2006,04,24,07,58,12.30
2006,04,24,07,59,12.40
2006,04,24,08,00,12.40
2006,04,24,08,01,12.50
2006,04,24,08,02,12.50
2006,04,24,08,03,12.50
2006,04,24,08,04,12.50
2006,04,24,08,05,12.50
2006,04,24,08,06,12.50
2006,04,24,08,07,12.50
2006,04,24,08,08,12.50
2006,04,24,08,09,12.60
2006,04,24,08,10,12.60
2006,04,24,08,11,12.60
2006,04,24,08,12,12.60
2006,04,24,08,13,12.70
2006,04,24,08,14,12.70
2006,04,24,08,15,12.80
2006,04,24,08,16,12.80
2006,04,24,08,17,12.80
2006,04,24,08,18,12.80
2006,04,24,08,19,12.80
2006,04,24,08,20,12.80
2006,04,24,08,21,12.80
2006,04,24,08,22,12.90
2006,04,24,08,23,12.90
2006,04,24,08,24,12.90
2006,04,24,08,25,12.90
2006,04,24,08,26,12.90
2006,04,24,08,27,13.00
2006,04,24,08,28,13.00
2006,04,24,08,29,13.10
2006,04,24,08,30,13.10
2006,04,24,08,31,13.10
2006,04,24,08,32,13.10
2006,04,24,08,33,13.20
2006,04,24,08,34,13.20
2006,04,24,08,35,13.30
2006,04,24,08,36,13.30
2006,04,24,08,37,13.30
2006,04,24,08,38,13.30
2006,04,24,08,39,13.40
2006,04,24,08,40,13.40
2006,04,24,08,41,13.40
2006,04,24,08,42,13.50
2006,04,24,08,43,13.50
2006,04,24,08,44,13.40
2006,04,24,08,45,13.40
2006,04,24,08,46,13.50
2006,04,24,08,47,13.50
2006,04,24,08,48,13.60
2006,04,24,08,49,13.70
2006,04,24,08,50,13.70
2006,04,24,08,51,13.70
2006,04,24,08,52,13.70
2006,04,24,08,53,13.80
2006,04,24,08,54,13.80
2006,04,24,08,55,13.80
2006,04,24,08,56,13.70
2006,04,24,08,57,13.70
2006,04,24,08,58,13.70
2006,04,24,08,59,13.70
2006,04,24,09,00,13.70
2006,04,24,09,01,13.70
2006,04,24,09,02,13.70
2006,04,24,09,03,13.80
2006,04,24,09,04,13.80
2006,04,24,09,05,13.80
2006,04,24,09,06,13.90
2006,04,24,09,07,13.90
2006,04,24,09,08,13.90
2006,04,24,09,09,14.00
2006,04,24,09,10,14.00
2006,04,24,09,11,14.10
2006,04,24,09,12,14.10
2006,04,24,09,13,14.10
2006,04,24,09,14,14.10
2006,04,24,09,15,14.20
2006,04,24,09,16,14.10
2006,04,24,09,17,14.10
2006,04,24,09,18,14.10
2006,04,24,09,19,14.10
2006,04,24,09,20,14.10
2006,04,24,09,21,14.10
2006,04,24,09,22,14.10
2006,04,24,09,23,14.10
2006,04,24,09,24,14.20
2006,04,24,09,25,14.20
2006,04,24,09,26,14.20
2006,04,24,09,27,14.30
2006,04,24,09,28,14.40
2006,04,24,09,29,14.40
2006,04,24,09,30,14.40
2006,04,24,09,31,14.40
2006,04,24,09,32,14.40
2006,04,24,09,33,14.40
2006,04,24,09,34,14.40
2006,04,24,09,35,14.40
2006,04,24,09,36,14.40
2006,04,24,09,37,14.50
2006,04,24,09,38,14.50
2006,04,24,09,39,14.50
2006,04,24,09,40,14.50
2006,04,24,09,41,14.40
2006,04,24,09,42,14.40
2006,04,24,09,43,14.40
2006,04,24,09,44,14.30
2006,04,24,09,45,14.40
2006,04,24,09,46,14.40
2006,04,24,09,47,14.30
2006,04,24,09,48,14.30
2006,04,24,09,49,14.40
2006,04,24,09,50,14.40
2006,04,24,09,51,14.40
2006,04,24,09,52,14.50
2006,04,24,09,53,14.60
2006,04,24,09,54,14.60
2006,04,24,09,55,14.60
2006,04,24,09,56,14.60
2006,04,24,09,57,14.60
2006,04,24,09,58,14.70
2006,04,24,09,59,14.60
2006,04,24,10,00,14.60
2006,04,24,10,01,14.60
2006,04,24,10,02,14.70
2006,04,24,10,03,14.70
2006,04,24,10,04,14.70
2006,04,24,10,05,14.80
2006,04,24,10,06,14.80
2006,04,24,10,07,14.90
2006,04,24,10,08,15.00
2006,04,24,10,09,15.00
2006,04,24,10,10,15.00
2006,04,24,10,11,14.90
2006,04,24,10,12,14.90
2006,04,24,10,13,15.00
2006,04,24,10,14,15.00
2006,04,24,10,15,15.00
2006,04,24,10,16,15.00
2006,04,24,10,17,15.00
2006,04,24,10,18,15.00
2006,04,24,10,19,15.00
2006,04,24,10,20,15.00
2006,04,24,10,21,15.00
2006,04,24,10,22,15.00
2006,04,24,10,23,15.00
2006,04,24,10,24,15.10
2006,04,24,10,25,15.00
2006,04,24,10,26,15.00
2006,04,24,10,27,14.90
2006,04,24,10,28,14.90
2006,04,24,10,29,14.90
2006,04,24,10,30,15.00
2006,04,24,10,31,15.00
2006,04,24,10,32,15.00
2006,04,24,10,33,14.80
2006,04,24,10,34,14.90
2006,04,24,10,35,14.90
2006,04,24,10,36,15.00
2006,04,24,10,37,15.10
2006,04,24,10,38,15.20
2006,04,24,10,39,15.30
2006,04,24,10,40,15.30
2006,04,24,10,41,15.40
2006,04,24,10,42,15.40
2006,04,24,10,43,15.40
2006,04,24,10,44,15.40
2006,04,24,10,45,15.50
2006,04,24,10,46,15.50
2006,04,24,10,47,15.50
2006,04,24,10,48,15.50
2006,04,24,10,49,15.40
2006,04,24,10,50,15.40
2006,04,24,10,51,15.50
2006,04,24,10,52,15.50
2006,04,24,10,53,15.60
2006,04,24,10,54,15.60
2006,04,24,10,55,15.70
2006,04,24,10,56,15.80
2006,04,24,10,57,15.80
2006,04,24,10,58,15.80
2006,04,24,10,59,15.80
2006,04,24,11,00,15.80
2006,04,24,11,01,15.80
2006,04,24,11,02,15.80
2006,04,24,11,03,15.80
2006,04,24,11,04,15.80
2006,04,24,11,05,15.90
2006,04,24,11,06,16.10
2006,04,24,11,07,16.00
2006,04,24,11,08,16.00
2006,04,24,11,09,16.00
2006,04,24,11,10,15.90
2006,04,24,11,11,15.70
2006,04,24,11,12,15.70
2006,04,24,11,13,15.70
2006,04,24,11,14,15.80
2006,04,24,11,15,15.80
2006,04,24,11,16,15.90
2006,04,24,11,17,16.00
2006,04,24,11,18,16.10
2006,04,24,11,19,16.10
2006,04,24,11,20,16.10
2006,04,24,11,21,16.00
2006,04,24,11,22,15.90
2006,04,24,11,23,15.90
2006,04,24,11,24,16.00
2006,04,24,11,25,16.10
2006,04,24,11,26,16.10
2006,04,24,11,27,16.00
2006,04,24,11,28,15.90
2006,04,24,11,29,15.90
2006,04,24,11,30,15.90
2006,04,24,11,31,16.00
2006,04,24,11,32,16.10
2006,04,24,11,33,16.10
2006,04,24,11,34,16.10
2006,04,24,11,35,16.00
2006,04,24,11,36,15.90
2006,04,24,11,37,16.00
2006,04,24,11,38,16.10
2006,04,24,11,39,16.10
2006,04,24,11,40,16.10
2006,04,24,11,41,16.10
2006,04,24,11,42,16.20
2006,04,24,11,43,16.40
2006,04,24,11,44,16.50
2006,04,24,11,45,16.60
2006,04,24,11,46,16.60
2006,04,24,11,47,16.70
2006,04,24,11,48,16.70
2006,04,24,11,49,16.70
2006,04,24,11,50,16.80
2006,04,24,11,51,16.90
2006,04,24,11,52,17.00
2006,04,24,11,53,17.10
2006,04,24,11,54,17.20
2006,04,24,11,55,17.10
2006,04,24,11,56,17.10
2006,04,24,11,57,17.00
2006,04,24,11,58,17.00
2006,04,24,11,59,17.00
2006,04,24,12,00,17.00
2006,04,24,12,01,17.00
2006,04,24,12,02,17.00
2006,04,24,12,03,17.10
2006,04,24,12,04,17.10
2006,04,24,12,05,17.10
2006,04,24,12,06,17.10
2006,04,24,12,07,17.10
2006,04,24,12,08,17.20
2006,04,24,12,09,17.30
2006,04,24,12,10,17.30
2006,04,24,12,11,17.30
2006,04,24,12,12,17.30
2006,04,24,12,13,17.30
2006,04,24,12,14,17.40
2006,04,24,12,15,17.30
2006,04,24,12,16,17.30
2006,04,24,12,17,17.30
2006,04,24,12,18,17.30
2006,04,24,12,19,17.30
2006,04,24,12,20,17.30
2006,04,24,12,21,17.40
2006,04,24,12,22,17.40
2006,04,24,12,23,17.50
2006,04,24,12,24,17.60
2006,04,24,12,25,17.60
2006,04,24,12,26,17.50
2006,04,24,12,27,17.50
2006,04,24,12,28,17.60
2006,04,24,12,29,17.70
2006,04,24,12,30,17.70
2006,04,24,12,31,17.80
2006,04,24,12,32,17.90
2006,04,24,12,33,18.00
2006,04,24,12,34,18.10
2006,04,24,12,35,18.20
2006,04,24,12,36,18.20
2006,04,24,12,37,18.30
2006,04,24,12,38,18.40
2006,04,24,12,39,18.50
2006,04,24,12,40,18.50
2006,04,24,12,41,18.60
2006,04,24,12,42,18.50
2006,04,24,12,43,18.50
2006,04,24,12,44,18.60
2006,04,24,12,45,18.70
2006,04,24,12,46,18.80
2006,04,24,12,47,18.70
2006,04,24,12,48,18.70
2006,04,24,12,49,18.70
2006,04,24,12,50,18.80
2006,04,24,12,51,18.80
2006,04,24,12,52,18.80
2006,04,24,12,53,18.80
2006,04,24,12,54,18.70
2006,04,24,12,55,18.70
2006,04,24,12,56,18.70
2006,04,24,12,57,18.70
2006,04,24,12,58,18.60
2006,04,24,12,59,18.60
2006,04,24,13,00,18.70
2006,04,24,13,01,18.80
2006,04,24,13,02,18.90
2006,04,24,13,03,18.90
2006,04,24,13,04,18.90
2006,04,24,13,05,19.10
2006,04,24,13,06,19.10
2006,04,24,13,07,19.10
2006,04,24,13,08,19.10
2006,04,24,13,09,19.00
2006,04,24,13,10,18.90
2006,04,24,13,11,18.90
2006,04,24,13,12,19.00
2006,04,24,13,13,18.90
2006,04,24,13,14,18.90
2006,04,24,13,15,18.90
2006,04,24,13,16,19.00
2006,04,24,13,17,19.10
2006,04,24,13,18,19.10
2006,04,24,13,19,19.10
2006,04,24,13,20,19.00
2006,04,24,13,21,18.90
2006,04,24,13,22,18.90
2006,04,24,13,23,18.90
2006,04,24,13,24,18.90
2006,04,24,13,25,19.00
2006,04,24,13,26,18.90
2006,04,24,13,27,18.90
2006,04,24,13,28,18.90
2006,04,24,13,29,18.90
2006,04,24,13,30,19.00
2006,04,24,13,31,19.10
2006,04,24,13,32,19.00
2006,04,24,13,33,18.90
2006,04,24,13,34,18.90
2006,04,24,13,35,18.90
2006,04,24,13,36,18.90
2006,04,24,13,37,18.80
2006,04,24,13,38,18.70
2006,04,24,13,39,18.70
2006,04,24,13,40,18.70
2006,04,24,13,41,18.70
2006,04,24,13,42,18.80
2006,04,24,13,43,18.90
2006,04,24,13,44,18.90
2006,04,24,13,45,19.00
2006,04,24,13,46,19.10
2006,04,24,13,47,19.20
2006,04,24,13,48,19.20
2006,04,24,13,49,19.30
2006,04,24,13,50,19.40
2006,04,24,13,51,19.50
2006,04,24,13,52,19.40
2006,04,24,13,53,19.40
2006,04,24,13,54,19.40
2006,04,24,13,55,19.50
2006,04,24,13,56,19.60
2006,04,24,13,57,19.60
2006,04,24,13,58,19.70
2006,04,24,13,59,19.70
2006,04,24,14,00,19.70
2006,04,24,14,01,19.80
2006,04,24,14,02,19.90
2006,04,24,14,03,19.90
2006,04,24,14,04,20.00
2006,04,24,14,05,20.10
2006,04,24,14,06,20.10
2006,04,24,14,07,20.20
2006,04,24,14,08,20.10
2006,04,24,14,09,20.10
2006,04,24,14,10,20.10
2006,04,24,14,11,20.10
2006,04,24,14,12,20.10
2006,04,24,14,13,20.10
2006,04,24,14,14,20.20
2006,04,24,14,15,20.20
2006,04,24,14,16,20.20
2006,04,24,14,17,20.20
2006,04,24,14,18,20.10
2006,04,24,14,19,20.10
2006,04,24,14,20,20.00
2006,04,24,14,21,19.90
2006,04,24,14,22,19.90
2006,04,24,14,23,19.90
2006,04,24,14,24,19.90
2006,04,24,14,25,19.90
2006,04,24,14,26,19.90
2006,04,24,14,27,19.90
2006,04,24,14,28,19.90
2006,04,24,14,29,19.90
2006,04,24,14,30,20.00
2006,04,24,14,31,19.90
2006,04,24,14,32,19.90
2006,04,24,14,33,19.90
2006,04,24,14,34,19.90
2006,04,24,14,35,19.90
2006,04,24,14,36,20.00
2006,04,24,14,37,20.10
2006,04,24,14,38,20.20
2006,04,24,14,39,20.20
2006,04,24,14,40,20.40
2006,04,24,14,41,20.50
2006,04,24,14,42,20.50
2006,04,24,14,43,20.50
2006,04,24,14,44,20.50
2006,04,24,14,45,20.40
2006,04,24,14,46,20.30
2006,04,24,14,47,20.20
2006,04,24,14,48,20.00
2006,04,24,14,49,19.90
2006,04,24,14,50,19.90
2006,04,24,14,51,19.90
2006,04,24,14,52,20.00
2006,04,24,14,53,20.10
2006,04,24,14,54,20.10
2006,04,24,14,55,20.10
2006,04,24,14,56,20.10
2006,04,24,14,57,20.20
2006,04,24,14,58,20.20
2006,04,24,14,59,20.20
2006,04,24,15,00,20.20
2006,04,24,15,01,20.20
2006,04,24,15,02,20.20
2006,04,24,15,03,20.20
2006,04,24,15,04,20.40
2006,04,24,15,05,20.40
2006,04,24,15,06,20.50
2006,04,24,15,07,20.50
2006,04,24,15,08,20.60
2006,04,24,15,09,20.60
2006,04,24,15,10,20.70
2006,04,24,15,11,20.80
2006,04,24,15,12,20.90
2006,04,24,15,13,21.00
2006,04,24,15,14,21.10
2006,04,24,15,15,21.10
2006,04,24,15,16,21.10
2006,04,24,15,17,21.00
2006,04,24,15,18,21.00
2006,04,24,15,19,20.90
2006,04,24,15,20,20.80
2006,04,24,15,21,20.80
2006,04,24,15,22,20.80
2006,04,24,15,23,21.00
2006,04,24,15,24,21.10
2006,04,24,15,25,21.20
2006,04,24,15,26,21.30
2006,04,24,15,27,21.30
2006,04,24,15,28,21.30
2006,04,24,15,29,21.30
2006,04,24,15,30,21.40
2006,04,24,15,31,21.40
2006,04,24,15,32,21.40
2006,04,24,15,33,21.30
2006,04,24,15,34,21.30
2006,04,24,15,35,21.10
2006,04,24,15,36,20.80
2006,04,24,15,37,20.50
2006,04,24,15,38,20.30
2006,04,24,15,39,20.00
2006,04,24,15,40,19.80
2006,04,24,15,41,19.50
2006,04,24,15,42,19.10
2006,04,24,15,43,18.80
2006,04,24,15,44,18.50
2006,04,24,15,45,18.20
2006,04,24,15,46,17.90
2006,04,24,15,47,17.80
2006,04,24,15,48,17.70
2006,04,24,15,49,17.70
2006,04,24,15,50,17.60
2006,04,24,15,51,17.60
2006,04,24,15,52,17.70
2006,04,24,15,53,17.70
2006,04,24,15,54,17.70
2006,04,24,15,55,17.80
2006,04,24,15,56,17.90
2006,04,24,15,57,17.90
2006,04,24,15,58,18.10
2006,04,24,15,59,18.10
2006,04,24,16,00,18.10
2006,04,24,16,01,18.10
2006,04,24,16,02,18.10
2006,04,24,16,03,18.00
2006,04,24,16,04,17.90
2006,04,24,16,05,17.90
2006,04,24,16,06,17.90
2006,04,24,16,07,17.90
2006,04,24,16,08,17.90
2006,04,24,16,09,18.00
2006,04,24,16,10,18.10
2006,04,24,16,11,18.20
2006,04,24,16,12,18.30
2006,04,24,16,13,18.50
2006,04,24,16,14,18.50
2006,04,24,16,15,18.50
2006,04,24,16,16,18.60
2006,04,24,16,17,18.60
2006,04,24,16,18,18.50
2006,04,24,16,19,18.50
2006,04,24,16,20,18.50
2006,04,24,16,21,18.40
2006,04,24,16,22,18.20
2006,04,24,16,23,18.20
2006,04,24,16,24,18.10
2006,04,24,16,25,18.00
2006,04,24,16,26,17.90
2006,04,24,16,27,17.80
2006,04,24,16,28,17.70
2006,04,24,16,29,17.60
2006,04,24,16,30,17.70
2006,04,24,16,31,17.80
2006,04,24,16,32,17.90
2006,04,24,16,33,17.90
2006,04,24,16,34,18.00
2006,04,24,16,35,18.10
2006,04,24,16,36,18.20
2006,04,24,16,37,18.30
2006,04,24,16,38,18.40
2006,04,24,16,39,18.50
2006,04,24,16,40,18.60
2006,04,24,16,41,18.60
2006,04,24,16,42,18.60
2006,04,24,16,43,18.50
2006,04,24,16,44,18.50
2006,04,24,16,45,18.40
2006,04,24,16,46,18.30
2006,04,24,16,47,18.40
2006,04,24,16,48,18.40
2006,04,24,16,49,18.40
2006,04,24,16,50,18.50
2006,04,24,16,51,18.50
2006,04,24,16,52,18.60
2006,04,24,16,53,18.60
2006,04,24,16,54,18.70
2006,04,24,16,55,18.70
2006,04,24,16,56,18.80
2006,04,24,16,57,18.80
2006,04,24,16,58,18.80
2006,04,24,16,59,18.80
2006,04,24,17,00,18.70
2006,04,24,17,01,18.70
2006,04,24,17,02,18.70
2006,04,24,17,03,18.60
2006,04,24,17,04,18.70
2006,04,24,17,05,18.70
2006,04,24,17,06,18.90
2006,04,24,17,07,18.90
2006,04,24,17,08,18.90
2006,04,24,17,09,18.90
2006,04,24,17,10,18.90
2006,04,24,17,11,18.90
2006,04,24,17,12,18.90
2006,04,24,17,13,18.90
2006,04,24,17,14,18.90
2006,04,24,17,15,18.90
2006,04,24,17,16,19.00
2006,04,24,17,17,19.10
2006,04,24,17,18,19.30
2006,04,24,17,19,19.40
2006,04,24,17,20,19.60
2006,04,24,17,21,19.60
2006,04,24,17,22,19.70
2006,04,24,17,23,19.80
2006,04,24,17,24,19.80
2006,04,24,17,25,19.90
2006,04,24,17,26,19.90
2006,04,24,17,27,20.10
2006,04,24,17,28,20.20
2006,04,24,17,29,20.20
2006,04,24,17,30,20.20
2006,04,24,17,31,20.20
2006,04,24,17,32,20.20
2006,04,24,17,33,20.10
2006,04,24,17,34,20.10
2006,04,24,17,35,20.10
2006,04,24,17,36,20.10
2006,04,24,17,37,20.10
2006,04,24,17,38,20.10